contact:dominique.lefevre@mio.osupytheas.fr, maurice.libes@osupytheas.fr, didier.mallarino@osupytheas.fr
Project:EMSO http://www.emso-fr.org/EMSO-France
Depth: 2436.0 m
Title:EMSO Ligure Ouest : Data MII capteur CSTAR
DateTime,Latitude,Longitude,Instrument_Serial,Reference_Counts,Signal_Counts,Corrected_Signal_raw_counts,Calculated_Beam_c_inverse_meters,Internal_thermistor_counts
DateTime,Latitude,Longitude,Instrument_Serial,Reference_Counts,Signal_Counts,Corrected_Signal_raw_counts,Calculated_Beam_c_inverse_meters,Internal_thermistor_counts
2019-10-06T00:01:44,42.805,6.029,CST-1368DR,7674,10658,15221,0.102,551
2019-10-06T00:04:46,42.805,6.029,CST-1368DR,7676,10748,15345,0.070,551
2019-10-06T00:07:47,42.805,6.029,CST-1368DR,7675,10747,15346,0.070,550
2019-10-06T00:10:49,42.805,6.029,CST-1368DR,7675,10749,15348,0.069,551
2019-10-06T00:13:51,42.805,6.029,CST-1368DR,7675,10745,15343,0.071,551
2019-10-06T00:16:52,42.805,6.029,CST-1368DR,7675,10745,15343,0.071,551
2019-10-06T00:19:54,42.805,6.029,CST-1368DR,7675,10746,15344,0.070,551
2019-10-06T00:22:56,42.805,6.029,CST-1368DR,7675,10747,15346,0.070,551
2019-10-06T00:25:57,42.805,6.029,CST-1368DR,7675,10745,15343,0.071,551
2019-10-06T00:28:59,42.805,6.029,CST-1368DR,7675,10747,15345,0.070,550
2019-10-06T00:32:01,42.805,6.029,CST-1368DR,7675,10747,15346,0.070,551
2019-10-06T00:35:02,42.805,6.029,CST-1368DR,7675,10746,15345,0.070,551
2019-10-06T00:38:04,42.805,6.029,CST-1368DR,7675,10747,15346,0.070,551
2019-10-06T00:41:06,42.805,6.029,CST-1368DR,7675,10747,15346,0.070,551
2019-10-06T00:44:07,42.805,6.029,CST-1368DR,7675,10747,15346,0.070,551
2019-10-06T00:47:09,42.805,6.029,CST-1368DR,7675,10746,15345,0.070,551
2019-10-06T00:50:11,42.805,6.029,CST-1368DR,7675,10747,15346,0.070,551
2019-10-06T00:53:12,42.805,6.029,CST-1368DR,7675,10746,15344,0.070,551
2019-10-06T00:56:14,42.805,6.029,CST-1368DR,7675,10747,15346,0.070,551
2019-10-06T00:59:16,42.805,6.029,CST-1368DR,7675,10747,15346,0.070,551
2019-10-06T01:02:17,42.805,6.029,CST-1368DR,7675,10746,15344,0.070,551
2019-10-06T01:05:19,42.805,6.029,CST-1368DR,7675,10747,15346,0.070,551
2019-10-06T01:08:20,42.805,6.029,CST-1368DR,7675,10748,15347,0.070,550
2019-10-06T01:11:22,42.805,6.029,CST-1368DR,7675,10747,15346,0.070,551
2019-10-06T01:14:24,42.805,6.029,CST-1368DR,7675,10746,15344,0.070,551
2019-10-06T01:17:25,42.805,6.029,CST-1368DR,7675,10747,15345,0.070,551
2019-10-06T01:20:27,42.805,6.029,CST-1368DR,7675,10746,15344,0.070,551
2019-10-06T01:23:29,42.805,6.029,CST-1368DR,7675,10747,15346,0.070,551
2019-10-06T01:26:30,42.805,6.029,CST-1368DR,7675,10746,15345,0.070,551
2019-10-06T01:29:32,42.805,6.029,CST-1368DR,7675,10747,15346,0.070,551
2019-10-06T01:32:34,42.805,6.029,CST-1368DR,7675,10745,15343,0.071,550
2019-10-06T01:35:35,42.805,6.029,CST-1368DR,7675,10745,15343,0.071,551
2019-10-06T01:38:37,42.805,6.029,CST-1368DR,7675,10746,15345,0.070,551
2019-10-06T01:41:39,42.805,6.029,CST-1368DR,7675,10744,15341,0.071,551
2019-10-06T01:44:40,42.805,6.029,CST-1368DR,7675,10743,15340,0.071,551
2019-10-06T01:47:42,42.805,6.029,CST-1368DR,7675,10746,15345,0.070,551
2019-10-06T01:50:44,42.805,6.029,CST-1368DR,7675,10747,15346,0.070,551
2019-10-06T01:53:45,42.805,6.029,CST-1368DR,7675,10746,15345,0.070,551
2019-10-06T01:56:47,42.805,6.029,CST-1368DR,7675,10745,15343,0.071,551
2019-10-06T01:59:49,42.805,6.029,CST-1368DR,7675,10746,15344,0.070,551
2019-10-06T02:02:50,42.805,6.029,CST-1368DR,7675,10746,15344,0.070,551
2019-10-06T02:05:52,42.805,6.029,CST-1368DR,7675,10743,15341,0.071,551
2019-10-06T02:08:54,42.805,6.029,CST-1368DR,7675,10747,15345,0.070,551
2019-10-06T02:11:55,42.805,6.029,CST-1368DR,7675,10746,15345,0.070,551
2019-10-06T02:14:57,42.805,6.029,CST-1368DR,7675,10745,15343,0.071,551
2019-10-06T02:17:58,42.805,6.029,CST-1368DR,7675,10747,15345,0.070,551
2019-10-06T02:21:00,42.805,6.029,CST-1368DR,7675,10747,15346,0.070,551
2019-10-06T02:24:02,42.805,6.029,CST-1368DR,7675,10746,15344,0.070,551
2019-10-06T02:27:03,42.805,6.029,CST-1368DR,7675,10746,15345,0.070,551
2019-10-06T02:30:05,42.805,6.029,CST-1368DR,7675,10746,15345,0.070,550
2019-10-06T02:33:07,42.805,6.029,CST-1368DR,7675,10746,15344,0.070,551
2019-10-06T02:36:08,42.805,6.029,CST-1368DR,7675,10747,15345,0.070,551
2019-10-06T02:39:10,42.805,6.029,CST-1368DR,7675,10746,15345,0.070,551
2019-10-06T02:42:12,42.805,6.029,CST-1368DR,7675,10745,15343,0.071,551
2019-10-06T02:45:13,42.805,6.029,CST-1368DR,7675,10746,15345,0.070,551
2019-10-06T02:48:15,42.805,6.029,CST-1368DR,7675,10745,15343,0.071,551
2019-10-06T02:51:17,42.805,6.029,CST-1368DR,7675,10746,15345,0.070,550
2019-10-06T02:54:18,42.805,6.029,CST-1368DR,7675,10747,15345,0.070,551
2019-10-06T02:57:20,42.805,6.029,CST-1368DR,7675,10745,15343,0.071,551
2019-10-06T03:00:21,42.805,6.029,CST-1368DR,7675,10746,15344,0.070,551
2019-10-06T03:03:23,42.805,6.029,CST-1368DR,7675,10746,15345,0.070,551
2019-10-06T03:06:25,42.805,6.029,CST-1368DR,7675,10746,15345,0.070,551
2019-10-06T03:09:26,42.805,6.029,CST-1368DR,7675,10746,15345,0.070,550
2019-10-06T03:12:28,42.805,6.029,CST-1368DR,7675,10746,15345,0.070,551
2019-10-06T03:15:30,42.805,6.029,CST-1368DR,7675,10746,15345,0.070,551
2019-10-06T03:18:31,42.805,6.029,CST-1368DR,7675,10746,15345,0.070,551
2019-10-06T03:21:33,42.805,6.029,CST-1368DR,7675,10745,15343,0.071,551
2019-10-06T03:24:35,42.805,6.029,CST-1368DR,7675,10746,15345,0.070,551
2019-10-06T03:27:36,42.805,6.029,CST-1368DR,7675,10746,15345,0.070,551
2019-10-06T03:30:38,42.805,6.029,CST-1368DR,7675,10747,15346,0.070,551
2019-10-06T03:33:40,42.805,6.029,CST-1368DR,7675,10746,15345,0.070,551
2019-10-06T03:36:41,42.805,6.029,CST-1368DR,7674,10744,15344,0.070,551
2019-10-06T03:39:43,42.805,6.029,CST-1368DR,7674,10744,15344,0.070,551
2019-10-06T03:42:44,42.805,6.029,CST-1368DR,7674,10746,15346,0.070,551
2019-10-06T03:45:46,42.805,6.029,CST-1368DR,7674,10746,15347,0.070,551
2019-10-06T03:48:48,42.805,6.029,CST-1368DR,7674,10747,15348,0.069,551
2019-10-06T03:51:49,42.805,6.029,CST-1368DR,7673,10676,15248,0.095,551
2019-10-06T03:54:51,42.805,6.029,CST-1368DR,7674,10746,15346,0.070,551
2019-10-06T03:57:53,42.805,6.029,CST-1368DR,7674,10746,15347,0.070,550
2019-10-06T04:00:54,42.805,6.029,CST-1368DR,7674,10746,15346,0.070,551
2019-10-06T04:03:56,42.805,6.029,CST-1368DR,7674,10745,15345,0.070,551
2019-10-06T04:06:58,42.805,6.029,CST-1368DR,7674,10746,15347,0.070,551
2019-10-06T04:10:00,42.805,6.029,CST-1368DR,7674,10746,15346,0.070,551
2019-10-06T04:13:01,42.805,6.029,CST-1368DR,7674,10745,15345,0.070,551
2019-10-06T04:16:03,42.805,6.029,CST-1368DR,7674,10745,15344,0.070,551
2019-10-06T04:19:04,42.805,6.029,CST-1368DR,7674,10746,15346,0.070,551
2019-10-06T04:22:06,42.805,6.029,CST-1368DR,7674,10746,15346,0.070,551
2019-10-06T04:25:08,42.805,6.029,CST-1368DR,7674,10745,15345,0.070,551
2019-10-06T04:28:09,42.805,6.029,CST-1368DR,7674,10746,15346,0.070,551
2019-10-06T04:31:11,42.805,6.029,CST-1368DR,7674,10746,15347,0.070,551
2019-10-06T04:34:13,42.805,6.029,CST-1368DR,7674,10745,15345,0.070,551
2019-10-06T04:37:14,42.805,6.029,CST-1368DR,7674,10743,15343,0.071,551
2019-10-06T04:40:16,42.805,6.029,CST-1368DR,7674,10744,15344,0.070,551
2019-10-06T04:43:18,42.805,6.029,CST-1368DR,7674,10743,15342,0.071,550
2019-10-06T04:46:19,42.805,6.029,CST-1368DR,7674,10744,15343,0.071,551
2019-10-06T04:49:21,42.805,6.029,CST-1368DR,7674,10745,15344,0.070,551
2019-10-06T04:52:23,42.805,6.029,CST-1368DR,7674,10744,15344,0.070,550
2019-10-06T04:55:24,42.805,6.029,CST-1368DR,7674,10744,15343,0.071,551
2019-10-06T04:58:26,42.805,6.029,CST-1368DR,7674,10744,15343,0.071,551
2019-10-06T05:01:28,42.805,6.029,CST-1368DR,7674,10745,15345,0.070,551
2019-10-06T05:04:29,42.805,6.029,CST-1368DR,7674,10743,15343,0.071,551
2019-10-06T05:07:31,42.805,6.029,CST-1368DR,7674,10745,15345,0.070,551
2019-10-06T05:10:32,42.805,6.029,CST-1368DR,7674,10746,15347,0.070,550
2019-10-06T05:13:34,42.805,6.029,CST-1368DR,7672,10441,14914,0.184,551
2019-10-06T05:16:36,42.805,6.029,CST-1368DR,7674,10745,15345,0.070,551
2019-10-06T05:19:37,42.805,6.029,CST-1368DR,7674,10744,15343,0.071,551
2019-10-06T05:22:39,42.805,6.029,CST-1368DR,7674,10743,15343,0.071,551
2019-10-06T05:25:41,42.805,6.029,CST-1368DR,7674,10742,15340,0.071,551
2019-10-06T05:28:42,42.805,6.029,CST-1368DR,7674,10745,15344,0.070,551
2019-10-06T05:31:44,42.805,6.029,CST-1368DR,7674,10744,15344,0.070,551
2019-10-06T05:34:46,42.805,6.029,CST-1368DR,7674,10745,15345,0.070,550
2019-10-06T05:37:48,42.805,6.029,CST-1368DR,7674,10743,15342,0.071,551
2019-10-06T05:40:49,42.805,6.029,CST-1368DR,7674,10746,15346,0.070,551
2019-10-06T05:43:51,42.805,6.029,CST-1368DR,7674,10745,15345,0.070,551
2019-10-06T05:46:53,42.805,6.029,CST-1368DR,7674,10744,15343,0.071,551
2019-10-06T05:49:54,42.805,6.029,CST-1368DR,7674,10744,15343,0.071,551
2019-10-06T05:52:56,42.805,6.029,CST-1368DR,7674,10745,15345,0.070,550
2019-10-06T05:55:57,42.805,6.029,CST-1368DR,7673,10744,15346,0.070,551
2019-10-06T05:58:59,42.805,6.029,CST-1368DR,7674,10744,15343,0.071,551
2019-10-06T06:02:01,42.805,6.029,CST-1368DR,7674,10744,15344,0.070,550
2019-10-06T06:05:03,42.805,6.029,CST-1368DR,7673,10743,15344,0.070,551
2019-10-06T06:08:04,42.805,6.029,CST-1368DR,7673,10744,15346,0.070,551
2019-10-06T06:11:06,42.805,6.029,CST-1368DR,7673,10744,15345,0.070,550
2019-10-06T06:14:08,42.805,6.029,CST-1368DR,7673,10745,15347,0.070,551
2019-10-06T06:17:09,42.805,6.029,CST-1368DR,7673,10745,15347,0.070,551
2019-10-06T06:20:11,42.805,6.029,CST-1368DR,7673,10744,15345,0.070,551
2019-10-06T06:23:12,42.805,6.029,CST-1368DR,7673,10745,15346,0.070,551
2019-10-06T06:26:14,42.805,6.029,CST-1368DR,7673,10744,15346,0.070,551
2019-10-06T06:29:16,42.805,6.029,CST-1368DR,7673,10744,15346,0.070,551
2019-10-06T06:32:17,42.805,6.029,CST-1368DR,7673,10744,15346,0.070,550
2019-10-06T06:35:19,42.805,6.029,CST-1368DR,7673,10744,15345,0.070,551
2019-10-06T06:38:21,42.805,6.029,CST-1368DR,7673,10745,15346,0.070,551
2019-10-06T06:41:22,42.805,6.029,CST-1368DR,7673,10744,15345,0.070,551
2019-10-06T06:44:24,42.805,6.029,CST-1368DR,7673,10745,15347,0.070,551
2019-10-06T06:47:26,42.805,6.029,CST-1368DR,7673,10745,15347,0.070,551
2019-10-06T06:50:27,42.805,6.029,CST-1368DR,7673,10744,15346,0.070,551
2019-10-06T06:53:29,42.805,6.029,CST-1368DR,7673,10744,15345,0.070,551
2019-10-06T06:56:31,42.805,6.029,CST-1368DR,7673,10745,15347,0.070,551
2019-10-06T06:59:32,42.805,6.029,CST-1368DR,7673,10743,15344,0.070,551
2019-10-06T07:02:34,42.805,6.029,CST-1368DR,7673,10744,15346,0.070,551
2019-10-06T07:05:36,42.805,6.029,CST-1368DR,7673,10744,15346,0.070,551
2019-10-06T07:08:37,42.805,6.029,CST-1368DR,7673,10739,15338,0.072,551
2019-10-06T07:11:39,42.805,6.029,CST-1368DR,7673,10744,15346,0.070,551
2019-10-06T07:14:41,42.805,6.029,CST-1368DR,7673,10744,15346,0.070,550
2019-10-06T07:17:42,42.805,6.029,CST-1368DR,7673,10745,15346,0.070,551
2019-10-06T07:20:44,42.805,6.029,CST-1368DR,7673,10744,15346,0.070,551
2019-10-06T07:23:46,42.805,6.029,CST-1368DR,7673,10744,15345,0.070,551
2019-10-06T07:26:47,42.805,6.029,CST-1368DR,7673,10743,15344,0.070,551
2019-10-06T07:29:49,42.805,6.029,CST-1368DR,7673,10743,15343,0.071,551
2019-10-06T07:32:51,42.805,6.029,CST-1368DR,7673,10744,15346,0.070,551
2019-10-06T07:35:52,42.805,6.029,CST-1368DR,7673,10744,15345,0.070,551
2019-10-06T07:38:54,42.805,6.029,CST-1368DR,7673,10744,15345,0.070,551
2019-10-06T07:41:55,42.805,6.029,CST-1368DR,7673,10745,15346,0.070,551
2019-10-06T07:44:57,42.805,6.029,CST-1368DR,7673,10744,15346,0.070,551
2019-10-06T07:47:59,42.805,6.029,CST-1368DR,7673,10744,15346,0.070,551
2019-10-06T07:51:00,42.805,6.029,CST-1368DR,7673,10744,15346,0.070,551
2019-10-06T07:54:02,42.805,6.029,CST-1368DR,7673,10744,15346,0.070,551
2019-10-06T07:57:04,42.805,6.029,CST-1368DR,7673,10744,15346,0.070,551
2019-10-06T08:00:05,42.805,6.029,CST-1368DR,7673,10744,15346,0.070,551
2019-10-06T08:03:07,42.805,6.029,CST-1368DR,7673,10743,15344,0.070,551
2019-10-06T08:06:09,42.805,6.029,CST-1368DR,7673,10744,15346,0.070,551
2019-10-06T08:09:10,42.805,6.029,CST-1368DR,7673,10744,15346,0.070,551
2019-10-06T08:12:12,42.805,6.029,CST-1368DR,7673,10745,15347,0.070,551
2019-10-06T08:15:14,42.805,6.029,CST-1368DR,7673,10744,15345,0.070,551
2019-10-06T08:18:15,42.805,6.029,CST-1368DR,7673,10744,15345,0.070,550
2019-10-06T08:21:17,42.805,6.029,CST-1368DR,7673,10744,15345,0.070,551
2019-10-06T08:24:19,42.805,6.029,CST-1368DR,7673,10741,15342,0.071,551
2019-10-06T08:27:20,42.805,6.029,CST-1368DR,7673,10743,15344,0.070,551
2019-10-06T08:30:22,42.805,6.029,CST-1368DR,7673,10744,15346,0.070,551
2019-10-06T08:33:24,42.805,6.029,CST-1368DR,7673,10743,15343,0.071,551
2019-10-06T08:36:25,42.805,6.029,CST-1368DR,7673,10742,15343,0.071,551
2019-10-06T08:39:27,42.805,6.029,CST-1368DR,7673,10744,15345,0.070,551
2019-10-06T08:42:28,42.805,6.029,CST-1368DR,7673,10744,15345,0.070,551
2019-10-06T08:45:30,42.805,6.029,CST-1368DR,7673,10742,15342,0.071,551
2019-10-06T08:48:32,42.805,6.029,CST-1368DR,7672,10743,15346,0.070,551
2019-10-06T08:51:33,42.805,6.029,CST-1368DR,7673,10743,15344,0.070,551
2019-10-06T08:54:35,42.805,6.029,CST-1368DR,7673,10744,15346,0.070,551
2019-10-06T08:57:37,42.805,6.029,CST-1368DR,7673,10743,15343,0.071,551
2019-10-06T09:00:38,42.805,6.029,CST-1368DR,7673,10740,15340,0.071,551
2019-10-06T09:03:40,42.805,6.029,CST-1368DR,7673,10743,15344,0.070,551
2019-10-06T09:06:42,42.805,6.029,CST-1368DR,7673,10743,15344,0.070,551
2019-10-06T09:09:43,42.805,6.029,CST-1368DR,7670,10403,14863,0.198,550
2019-10-06T09:12:46,42.805,6.029,CST-1368DR,7672,10744,15347,0.070,551
2019-10-06T09:15:47,42.805,6.029,CST-1368DR,7672,10742,15344,0.070,551
2019-10-06T09:18:49,42.805,6.029,CST-1368DR,7672,10742,15345,0.070,551
2019-10-06T09:21:51,42.805,6.029,CST-1368DR,7672,10743,15346,0.070,551
2019-10-06T09:24:52,42.805,6.029,CST-1368DR,7672,10744,15348,0.069,551
2019-10-06T09:27:54,42.805,6.029,CST-1368DR,7672,10742,15344,0.070,551
2019-10-06T09:30:55,42.805,6.029,CST-1368DR,7672,10743,15346,0.070,551
2019-10-06T09:33:57,42.805,6.029,CST-1368DR,7672,10743,15346,0.070,551
2019-10-06T09:36:59,42.805,6.029,CST-1368DR,7672,10742,15345,0.070,551
2019-10-06T09:40:00,42.805,6.029,CST-1368DR,7672,10737,15337,0.072,551
2019-10-06T09:43:02,42.805,6.029,CST-1368DR,7672,10743,15346,0.070,551
2019-10-06T09:46:04,42.805,6.029,CST-1368DR,7672,10743,15346,0.070,551
2019-10-06T09:49:05,42.805,6.029,CST-1368DR,7672,10744,15347,0.070,551
2019-10-06T09:52:07,42.805,6.029,CST-1368DR,7672,10743,15345,0.070,551
2019-10-06T09:55:09,42.805,6.029,CST-1368DR,7672,10743,15346,0.070,551
2019-10-06T09:58:10,42.805,6.029,CST-1368DR,7672,10744,15347,0.070,551
2019-10-06T10:01:12,42.805,6.029,CST-1368DR,7672,10744,15347,0.070,551
2019-10-06T10:04:14,42.805,6.029,CST-1368DR,7672,10743,15346,0.070,551
2019-10-06T10:07:15,42.805,6.029,CST-1368DR,7672,10743,15346,0.070,551
2019-10-06T10:10:17,42.805,6.029,CST-1368DR,7672,10740,15342,0.071,551
2019-10-06T10:13:19,42.805,6.029,CST-1368DR,7672,10743,15346,0.070,550
2019-10-06T10:16:20,42.805,6.029,CST-1368DR,7672,10743,15346,0.070,551
2019-10-06T10:19:22,42.805,6.029,CST-1368DR,7672,10743,15345,0.070,551
2019-10-06T10:22:24,42.805,6.029,CST-1368DR,7672,10743,15346,0.070,551
2019-10-06T10:25:25,42.805,6.029,CST-1368DR,7672,10741,15342,0.071,551
2019-10-06T10:28:27,42.805,6.029,CST-1368DR,7672,10744,15347,0.070,551
2019-10-06T10:31:28,42.805,6.029,CST-1368DR,7672,10742,15344,0.070,551
2019-10-06T10:34:30,42.805,6.029,CST-1368DR,7672,10741,15343,0.071,551
2019-10-06T10:37:32,42.805,6.029,CST-1368DR,7672,10743,15345,0.070,551
2019-10-06T10:40:33,42.805,6.029,CST-1368DR,7672,10741,15342,0.071,551
2019-10-06T10:43:35,42.805,6.029,CST-1368DR,7672,10741,15343,0.071,551
2019-10-06T10:46:37,42.805,6.029,CST-1368DR,7672,10742,15345,0.070,551
2019-10-06T10:49:38,42.805,6.029,CST-1368DR,7672,10741,15343,0.071,551
2019-10-06T10:52:40,42.805,6.029,CST-1368DR,7672,10741,15343,0.071,551
2019-10-06T10:55:42,42.805,6.029,CST-1368DR,7672,10741,15343,0.071,551
2019-10-06T10:58:43,42.805,6.029,CST-1368DR,7672,10741,15343,0.071,551
2019-10-06T11:01:45,42.805,6.029,CST-1368DR,7672,10741,15343,0.071,551
2019-10-06T11:04:47,42.805,6.029,CST-1368DR,7672,10742,15344,0.070,551
2019-10-06T11:07:48,42.805,6.029,CST-1368DR,7672,10743,15345,0.070,551
2019-10-06T11:10:50,42.805,6.029,CST-1368DR,7672,10742,15344,0.070,551
2019-10-06T11:13:52,42.805,6.029,CST-1368DR,7672,10742,15344,0.070,551
2019-10-06T11:16:53,42.805,6.029,CST-1368DR,7672,10741,15343,0.071,551
2019-10-06T11:19:55,42.805,6.029,CST-1368DR,7672,10741,15343,0.071,551
2019-10-06T11:22:56,42.805,6.029,CST-1368DR,7672,10741,15343,0.071,551
2019-10-06T11:25:58,42.805,6.029,CST-1368DR,7672,10742,15344,0.070,551
2019-10-06T11:29:00,42.805,6.029,CST-1368DR,7672,10741,15343,0.071,551
2019-10-06T11:32:01,42.805,6.029,CST-1368DR,7672,10741,15342,0.071,551
2019-10-06T11:35:03,42.805,6.029,CST-1368DR,7672,10741,15343,0.071,551
2019-10-06T11:38:05,42.805,6.029,CST-1368DR,7672,10741,15343,0.071,551
2019-10-06T11:41:06,42.805,6.029,CST-1368DR,7672,10740,15342,0.071,551
2019-10-06T11:44:08,42.805,6.029,CST-1368DR,7672,10741,15343,0.071,550
2019-10-06T11:47:10,42.805,6.029,CST-1368DR,7672,10741,15343,0.071,551
2019-10-06T11:50:11,42.805,6.029,CST-1368DR,7672,10740,15342,0.071,551
2019-10-06T11:53:13,42.805,6.029,CST-1368DR,7671,10741,15345,0.070,551
2019-10-06T11:56:15,42.805,6.029,CST-1368DR,7671,10741,15345,0.070,551
2019-10-06T11:59:16,42.805,6.029,CST-1368DR,7671,10742,15346,0.070,551
2019-10-06T12:02:18,42.805,6.029,CST-1368DR,7672,10740,15341,0.071,551
2019-10-06T12:05:20,42.805,6.029,CST-1368DR,7672,10741,15343,0.071,551
2019-10-06T12:08:21,42.805,6.029,CST-1368DR,7671,10739,15342,0.071,551
2019-10-06T12:11:23,42.805,6.029,CST-1368DR,7671,10740,15344,0.070,551
2019-10-06T12:14:24,42.805,6.029,CST-1368DR,7671,10738,15341,0.071,551
2019-10-06T12:17:26,42.805,6.029,CST-1368DR,7671,10740,15343,0.071,551
2019-10-06T12:20:28,42.805,6.029,CST-1368DR,7671,10741,15345,0.070,550
2019-10-06T12:23:30,42.805,6.029,CST-1368DR,7671,10740,15344,0.070,551
2019-10-06T12:26:31,42.805,6.029,CST-1368DR,7671,10740,15344,0.070,551
2019-10-06T12:29:33,42.805,6.029,CST-1368DR,7671,10740,15343,0.071,551
2019-10-06T12:32:35,42.805,6.029,CST-1368DR,7671,10740,15344,0.070,551
2019-10-06T12:35:36,42.805,6.029,CST-1368DR,7671,10740,15344,0.070,551
2019-10-06T12:38:38,42.805,6.029,CST-1368DR,7671,10740,15344,0.070,551
2019-10-06T12:41:40,42.805,6.029,CST-1368DR,7671,10740,15344,0.070,551
2019-10-06T12:44:41,42.805,6.029,CST-1368DR,7671,10739,15342,0.071,551
2019-10-06T12:47:43,42.805,6.029,CST-1368DR,7671,10740,15343,0.071,551
2019-10-06T12:50:45,42.805,6.029,CST-1368DR,7671,10740,15343,0.071,551
2019-10-06T12:53:46,42.805,6.029,CST-1368DR,7671,10739,15342,0.071,551
2019-10-06T12:56:48,42.805,6.029,CST-1368DR,7671,10740,15344,0.070,551
2019-10-06T12:59:50,42.805,6.029,CST-1368DR,7671,10740,15344,0.070,551
2019-10-06T13:02:51,42.805,6.029,CST-1368DR,7671,10737,15340,0.071,551
2019-10-06T13:05:53,42.805,6.029,CST-1368DR,7671,10738,15340,0.071,551
2019-10-06T13:08:55,42.805,6.029,CST-1368DR,7671,10739,15342,0.071,551
2019-10-06T13:11:56,42.805,6.029,CST-1368DR,7671,10740,15344,0.070,551
2019-10-06T13:14:58,42.805,6.029,CST-1368DR,7671,10740,15343,0.071,551
2019-10-06T13:17:59,42.805,6.029,CST-1368DR,7671,10739,15342,0.071,551
2019-10-06T13:21:01,42.805,6.029,CST-1368DR,7671,10739,15342,0.071,551
2019-10-06T13:24:03,42.805,6.029,CST-1368DR,7671,10738,15341,0.071,551
2019-10-06T13:27:04,42.805,6.029,CST-1368DR,7671,10740,15344,0.070,551
2019-10-06T13:30:06,42.805,6.029,CST-1368DR,7671,10740,15343,0.071,551
2019-10-06T13:33:08,42.805,6.029,CST-1368DR,7671,10739,15342,0.071,551
2019-10-06T13:36:09,42.805,6.029,CST-1368DR,7671,10739,15342,0.071,550
2019-10-06T13:39:11,42.805,6.029,CST-1368DR,7671,10737,15339,0.072,551
2019-10-06T13:42:13,42.805,6.029,CST-1368DR,7671,10740,15343,0.071,551
2019-10-06T13:45:14,42.805,6.029,CST-1368DR,7671,10739,15342,0.071,551
2019-10-06T13:48:16,42.805,6.029,CST-1368DR,7671,10740,15343,0.071,551
2019-10-06T13:51:17,42.805,6.029,CST-1368DR,7671,10738,15340,0.071,551
2019-10-06T13:54:19,42.805,6.029,CST-1368DR,7671,10738,15341,0.071,551
2019-10-06T13:57:21,42.805,6.029,CST-1368DR,7671,10739,15342,0.071,551
2019-10-06T14:00:22,42.805,6.029,CST-1368DR,7671,10738,15340,0.071,551
2019-10-06T14:03:24,42.805,6.029,CST-1368DR,7671,10738,15341,0.071,551
2019-10-06T14:06:26,42.805,6.029,CST-1368DR,7671,10739,15342,0.071,551
2019-10-06T14:09:27,42.805,6.029,CST-1368DR,7671,10738,15340,0.071,551
2019-10-06T14:12:29,42.805,6.029,CST-1368DR,7671,10738,15341,0.071,550
2019-10-06T14:15:31,42.805,6.029,CST-1368DR,7671,10740,15343,0.071,551
2019-10-06T14:18:32,42.805,6.029,CST-1368DR,7671,10739,15342,0.071,551
2019-10-06T14:21:34,42.805,6.029,CST-1368DR,7671,10738,15341,0.071,551
2019-10-06T14:24:36,42.805,6.029,CST-1368DR,7671,10739,15342,0.071,551
2019-10-06T14:27:37,42.805,6.029,CST-1368DR,7671,10738,15341,0.071,550
2019-10-06T14:30:39,42.805,6.029,CST-1368DR,7670,10605,15153,0.120,551
2019-10-06T14:33:41,42.805,6.029,CST-1368DR,7671,10739,15342,0.071,551
2019-10-06T14:36:42,42.805,6.029,CST-1368DR,7671,10734,15334,0.073,551
2019-10-06T14:39:44,42.805,6.029,CST-1368DR,7671,10739,15342,0.071,551
2019-10-06T14:42:46,42.805,6.029,CST-1368DR,7671,10734,15335,0.073,551
2019-10-06T14:45:47,42.805,6.029,CST-1368DR,7671,10731,15330,0.074,551
2019-10-06T14:48:49,42.805,6.029,CST-1368DR,7671,10737,15339,0.072,551
2019-10-06T14:51:51,42.805,6.029,CST-1368DR,7671,10738,15341,0.071,551
2019-10-06T14:54:52,42.805,6.029,CST-1368DR,7671,10736,15337,0.072,551
2019-10-06T14:57:54,42.805,6.029,CST-1368DR,7671,10740,15343,0.071,551
2019-10-06T15:00:56,42.805,6.029,CST-1368DR,7671,10736,15338,0.072,551
2019-10-06T15:03:57,42.805,6.029,CST-1368DR,7671,10739,15342,0.071,551
2019-10-06T15:06:59,42.805,6.029,CST-1368DR,7670,10738,15343,0.071,551
2019-10-06T15:10:00,42.805,6.029,CST-1368DR,7670,10739,15344,0.070,551
2019-10-06T15:13:02,42.805,6.029,CST-1368DR,7670,10737,15340,0.071,551
2019-10-06T15:16:04,42.805,6.029,CST-1368DR,7671,10738,15340,0.071,550
2019-10-06T15:19:05,42.805,6.029,CST-1368DR,7670,10738,15342,0.071,551
2019-10-06T15:22:07,42.805,6.029,CST-1368DR,7670,10738,15343,0.071,551
2019-10-06T15:25:09,42.805,6.029,CST-1368DR,7670,10738,15342,0.071,551
2019-10-06T15:28:10,42.805,6.029,CST-1368DR,7670,10738,15343,0.071,551
2019-10-06T15:31:12,42.805,6.029,CST-1368DR,7670,10737,15341,0.071,551
2019-10-06T15:34:14,42.805,6.029,CST-1368DR,7670,10736,15339,0.072,551
2019-10-06T15:37:15,42.805,6.029,CST-1368DR,7670,10739,15344,0.070,551
2019-10-06T15:40:17,42.805,6.029,CST-1368DR,7670,10738,15342,0.071,551
2019-10-06T15:43:19,42.805,6.029,CST-1368DR,7670,10739,15344,0.070,551
2019-10-06T15:46:20,42.805,6.029,CST-1368DR,7670,10737,15341,0.071,551
2019-10-06T15:49:22,42.805,6.029,CST-1368DR,7670,10737,15341,0.071,551
2019-10-06T15:52:24,42.805,6.029,CST-1368DR,7670,10738,15342,0.071,551
2019-10-06T15:55:25,42.805,6.029,CST-1368DR,7670,10738,15342,0.071,551
2019-10-06T15:58:27,42.805,6.029,CST-1368DR,7670,10738,15343,0.071,551
2019-10-06T16:01:29,42.805,6.029,CST-1368DR,7670,10737,15341,0.071,550
2019-10-06T16:04:30,42.805,6.029,CST-1368DR,7668,10688,15275,0.088,551
2019-10-06T16:07:32,42.805,6.029,CST-1368DR,7670,10737,15341,0.071,551
2019-10-06T16:10:34,42.805,6.029,CST-1368DR,7670,10738,15342,0.071,551
2019-10-06T16:13:35,42.805,6.029,CST-1368DR,7670,10738,15343,0.071,551
2019-10-06T16:16:37,42.805,6.029,CST-1368DR,7670,10735,15338,0.072,551
2019-10-06T16:19:38,42.805,6.029,CST-1368DR,7670,10734,15337,0.072,551
2019-10-06T16:22:40,42.805,6.029,CST-1368DR,7670,10734,15336,0.072,551
2019-10-06T16:25:42,42.805,6.029,CST-1368DR,7670,10737,15341,0.071,550
2019-10-06T16:28:43,42.805,6.029,CST-1368DR,7670,10735,15338,0.072,551
2019-10-06T16:31:45,42.805,6.029,CST-1368DR,7670,10736,15340,0.071,551
2019-10-06T16:34:47,42.805,6.029,CST-1368DR,7670,10733,15335,0.073,551
2019-10-06T16:37:48,42.805,6.029,CST-1368DR,7670,10737,15340,0.071,551